Location: Ackerson Creek
(37.8210°N, 119.8757°W)
Time: 15:42:52
(UTC+00:00)

H-2A R/B - Pass Details

Date: 13 April 2024
Orbit: 732 x 833 km, 98.2° (Epoch: 23 May)

Event Time Altitude Azimuth Distance (km) Brightness Sun altitude
Rises 12:00:19 0° 19° (NNE) 3,193 5.9 -16.8°
Reaches altitude 10° 12:02:41 10° 25° (NNE) 2,277 5.2 -16.4°
Maximum altitude 12:07:30 47° 100° (E) 1,007 3.0 -15.5°
Drops below altitude 10° 12:12:24 10° 173° (S) 2,320 4.3 -14.7°
Sets 12:14:49 0° 179° (S) 3,260 5.0 -14.2°
